TimeEDT,TemperatureF,Dew PointF,Humidity,Sea Level PressureIn,VisibilityMPH,Wind Direction,Wind SpeedMPH,Gust SpeedMPH,PrecipitationIn,Events,Conditions,WindDirDegrees,DateUTC
12:15 AM,56.8,37.0,48,30.16,10.0,Calm,Calm,-,N/A,,Clear,0,2013-05-08 04:15:00
12:35 AM,55.4,37.4,51,30.16,10.0,Calm,Calm,-,N/A,,Clear,0,2013-05-08 04:35:00
12:55 AM,56.3,36.5,47,30.16,10.0,Calm,Calm,-,N/A,,Clear,0,2013-05-08 04:55:00
1:15 AM,55.8,35.6,47,30.16,10.0,Calm,Calm,-,N/A,,Clear,0,2013-05-08 05:15:00
1:35 AM,53.8,36.1,51,30.16,10.0,Calm,Calm,-,N/A,,Clear,0,2013-05-08 05:35:00
1:55 AM,56.7,35.4,45,30.16,10.0,Calm,Calm,-,N/A,,Clear,0,2013-05-08 05:55:00
2:15 AM,55.0,36.0,49,30.16,10.0,Calm,Calm,-,N/A,,Clear,0,2013-05-08 06:15:00
2:35 AM,51.4,37.2,58,30.16,10.0,Calm,Calm,-,N/A,,Clear,0,2013-05-08 06:35:00
2:55 AM,51.1,37.4,60,30.16,10.0,Calm,Calm,-,N/A,,Clear,0,2013-05-08 06:55:00
3:15 AM,52.3,36.9,56,30.16,10.0,Calm,Calm,-,N/A,,Clear,0,2013-05-08 07:15:00
3:35 AM,50.9,36.1,57,30.16,10.0,East,3.5,-,N/A,,Clear,100,2013-05-08 07:35:00
3:55 AM,51.4,36.0,56,30.16,10.0,Calm,Calm,-,N/A,,Clear,0,2013-05-08 07:55:00
4:15 AM,50.5,36.5,59,30.16,10.0,Calm,Calm,-,N/A,,Clear,0,2013-05-08 08:15:00
4:35 AM,49.1,36.9,63,30.16,10.0,Calm,Calm,-,N/A,,Clear,0,2013-05-08 08:35:00
4:55 AM,48.2,37.4,66,30.17,10.0,Calm,Calm,-,N/A,,Clear,0,2013-05-08 08:55:00
5:15 AM,48.2,37.4,66,30.17,10.0,Calm,Calm,-,N/A,,Clear,0,2013-05-08 09:15:00
5:35 AM,47.5,37.4,68,30.18,10.0,Calm,Calm,-,N/A,,Clear,0,2013-05-08 09:35:00
5:55 AM,48.0,37.6,67,30.18,10.0,Calm,Calm,-,N/A,,Clear,0,2013-05-08 09:55:00
6:15 AM,49.8,38.3,65,30.18,10.0,Calm,Calm,-,N/A,,Clear,0,2013-05-08 10:15:00
6:55 AM,51.8,41.0,67,30.19,10.0,Calm,Calm,-,N/A,,Clear,0,2013-05-08 10:55:00
7:15 AM,52.0,41.2,67,30.20,10.0,Calm,Calm,-,N/A,,Clear,0,2013-05-08 11:15:00
7:35 AM,54.1,40.8,61,30.20,10.0,Calm,Calm,-,N/A,,Clear,0,2013-05-08 11:35:00
7:55 AM,57.4,43.3,59,30.21,10.0,Calm,Calm,-,N/A,,Clear,0,2013-05-08 11:55:00
8:15 AM,59.0,45.0,60,30.21,10.0,Calm,Calm,-,N/A,,Clear,0,2013-05-08 12:15:00
8:35 AM,62.2,47.7,59,30.21,10.0,SSE,6.9,-,N/A,,Clear,160,2013-05-08 12:35:00
8:55 AM,63.5,49.5,60,30.21,10.0,SSE,4.6,-,N/A,,Clear,160,2013-05-08 12:55:00
9:15 AM,64.9,50.4,59,30.21,10.0,SSE,6.9,-,N/A,,Clear,160,2013-05-08 13:15:00
9:35 AM,66.2,49.5,55,30.21,10.0,SSE,8.1,-,N/A,,Clear,150,2013-05-08 13:35:00
9:55 AM,68.5,48.9,49,30.21,10.0,SSE,10.4,-,N/A,,Clear,160,2013-05-08 13:55:00
10:15 AM,69.6,49.1,48,30.20,10.0,South,8.1,-,N/A,,Clear,180,2013-05-08 14:15:00
10:35 AM,70.5,46.8,43,30.20,10.0,South,10.4,-,N/A,,Clear,180,2013-05-08 14:35:00
10:55 AM,71.4,47.3,42,30.19,10.0,South,8.1,-,N/A,,Clear,170,2013-05-08 14:55:00
11:15 AM,73.0,47.3,40,30.19,10.0,SE,9.2,-,N/A,,Clear,140,2013-05-08 15:15:00
11:35 AM,73.8,46.9,38,30.18,10.0,South,6.9,-,N/A,,Clear,190,2013-05-08 15:35:00
11:55 AM,75.4,47.1,37,30.18,10.0,SSE,8.1,-,N/A,,Clear,160,2013-05-08 15:55:00
12:15 PM,76.1,47.5,36,30.16,10.0,South,8.1,-,N/A,,Clear,180,2013-05-08 16:15:00
12:35 PM,76.1,45.5,34,30.16,10.0,South,8.1,-,N/A,,Clear,170,2013-05-08 16:35:00
12:55 PM,76.5,43.7,31,30.15,10.0,SSE,11.5,18.4,N/A,,Clear,160,2013-05-08 16:55:00
1:15 PM,75.7,44.2,32,30.14,10.0,South,13.8,17.3,N/A,,Scattered Clouds,170,2013-05-08 17:15:00
1:35 PM,77.4,35.6,22,30.14,10.0,SSE,6.9,19.6,N/A,,Clear,160,2013-05-08 17:35:00
1:55 PM,78.6,31.3,18,30.14,10.0,SSE,11.5,19.6,N/A,,Clear,150,2013-05-08 17:55:00
2:15 PM,78.1,29.5,17,30.14,10.0,SSE,12.7,19.6,N/A,,Scattered Clouds,160,2013-05-08 18:15:00
2:35 PM,78.1,34.2,20,30.13,10.0,SSE,12.7,20.7,N/A,,Scattered Clouds,150,2013-05-08 18:35:00
2:55 PM,77.4,42.3,29,30.13,10.0,South,15.0,21.9,N/A,,Scattered Clouds,180,2013-05-08 18:55:00
3:15 PM,73.8,47.7,40,30.12,10.0,South,13.8,20.7,N/A,,Mostly Cloudy,170,2013-05-08 19:15:00
3:35 PM,72.7,47.7,41,30.12,10.0,SSW,13.8,18.4,N/A,,Mostly Cloudy,200,2013-05-08 19:35:00
3:55 PM,72.5,47.1,40,30.12,10.0,South,16.1,19.6,N/A,,Mostly Cloudy,170,2013-05-08 19:55:00
4:15 PM,72.5,48.4,42,30.12,10.0,SSE,12.7,18.4,N/A,,Overcast,160,2013-05-08 20:15:00
4:35 PM,71.2,48.9,45,30.11,10.0,South,11.5,19.6,N/A,,Overcast,170,2013-05-08 20:35:00
4:55 PM,72.0,48.2,43,30.11,10.0,SSE,11.5,18.4,N/A,,Mostly Cloudy,150,2013-05-08 20:55:00
5:15 PM,70.7,48.4,45,30.11,10.0,SSE,8.1,-,N/A,,Mostly Cloudy,160,2013-05-08 21:15:00
5:35 PM,72.0,48.9,44,30.11,10.0,SSE,10.4,16.1,N/A,,Mostly Cloudy,160,2013-05-08 21:35:00
5:55 PM,71.1,48.6,45,30.11,10.0,SSE,9.2,-,N/A,,Mostly Cloudy,150,2013-05-08 21:55:00
6:15 PM,70.3,48.7,46,30.11,10.0,SSE,9.2,-,N/A,,Mostly Cloudy,160,2013-05-08 22:15:00
6:35 PM,69.6,49.3,48,30.11,10.0,SSE,9.2,-,N/A,,Overcast,150,2013-05-08 22:35:00
6:55 PM,68.5,49.1,50,30.10,10.0,SE,8.1,-,N/A,,Mostly Cloudy,130,2013-05-08 22:55:00
7:15 PM,68.5,48.4,49,30.11,10.0,SSE,8.1,-,N/A,,Mostly Cloudy,150,2013-05-08 23:15:00
7:35 PM,68.2,49.1,50,30.11,10.0,SSE,6.9,-,N/A,,Scattered Clouds,150,2013-05-08 23:35:00
7:55 PM,67.6,48.7,51,30.11,10.0,SE,6.9,-,N/A,,Mostly Cloudy,130,2013-05-08 23:55:00
8:15 PM,66.7,48.0,51,30.11,10.0,SSE,8.1,-,N/A,,Mostly Cloudy,160,2013-05-09 00:15:00
8:35 PM,64.0,50.7,62,30.11,10.0,SSE,3.5,-,N/A,Rain,Light Rain,160,2013-05-09 00:35:00
8:55 PM,63.5,51.1,64,30.12,10.0,Calm,Calm,-,N/A,,Overcast,0,2013-05-09 00:55:00
9:15 PM,63.5,51.8,66,30.12,10.0,SE,5.8,-,N/A,,Light Drizzle,140,2013-05-09 01:15:00
9:35 PM,62.2,51.8,69,30.12,10.0,SSE,4.6,-,N/A,,Light Drizzle,150,2013-05-09 01:35:00
9:55 PM,61.7,51.8,70,30.12,10.0,Calm,Calm,-,N/A,,Overcast,0,2013-05-09 01:55:00
10:15 PM,60.8,52.2,73,30.12,10.0,SSE,3.5,-,N/A,,Overcast,150,2013-05-09 02:15:00
10:35 PM,60.4,53.1,77,30.12,7.0,SE,4.6,-,N/A,,Overcast,140,2013-05-09 02:35:00
10:55 PM,59.9,53.1,78,30.11,10.0,Calm,Calm,-,N/A,,Overcast,0,2013-05-09 02:55:00
11:15 PM,59.9,52.7,77,30.11,10.0,Calm,Calm,-,N/A,,Mostly Cloudy,0,2013-05-09 03:15:00
11:35 PM,59.9,52.7,77,30.10,10.0,Calm,Calm,-,N/A,,Overcast,0,2013-05-09 03:35:00